Time,TemperatureF,DewpointF,PressureIn,WindDirection,WindDirectionDegrees,WindSpeedMPH,WindSpeedGustMPH,Humidity,HourlyPrecipIn,Conditions,Clouds,dailyrainin,SolarRadiationWatts/m^2,SoftwareType,DateUTC
2013-03-20 00:00:00,32.0,20.1,29.97,West,267,6.0,15.0,61,0.00,,---,0.02,0.00,VWS V14.00,2013-03-20 04:00:00,
2013-03-20 00:05:00,32.1,19.8,29.97,WSW,247,3.0,11.0,60,0.00,,---,0.00,0.00,VWS V14.00,2013-03-20 04:05:00,
2013-03-20 00:10:00,32.1,19.8,29.98,West,272,6.0,12.0,60,0.00,,---,0.00,0.00,VWS V14.00,2013-03-20 04:10:00,
2013-03-20 00:15:00,31.9,19.6,29.98,West,273,6.0,13.0,60,0.00,,---,0.00,0.00,VWS V14.00,2013-03-20 04:15:00,
2013-03-20 00:20:00,32.2,19.5,29.98,West,270,9.0,14.0,59,0.00,,---,0.00,0.00,VWS V14.00,2013-03-20 04:20:00,
2013-03-20 00:25:00,32.1,19.4,29.97,West,260,7.0,14.0,59,0.00,,---,0.00,0.00,VWS V14.00,2013-03-20 04:25:00,
2013-03-20 00:30:00,31.9,19.2,29.97,West,281,7.0,14.0,59,0.00,,---,0.00,0.00,VWS V14.00,2013-03-20 04:30:00,
2013-03-20 00:35:00,32.0,19.3,29.97,WSW,256,8.0,14.0,59,0.00,,---,0.00,0.00,VWS V14.00,2013-03-20 04:35:00,
2013-03-20 00:40:00,32.2,19.1,29.97,West,275,9.0,14.0,58,0.00,,---,0.00,0.00,VWS V14.00,2013-03-20 04:40:00,
2013-03-20 00:45:00,32.2,19.1,29.97,West,266,7.0,15.0,58,0.00,,---,0.00,0.00,VWS V14.00,2013-03-20 04:45:00,
2013-03-20 00:51:00,32.2,18.7,29.97,West,275,13.0,19.0,57,0.00,,---,0.00,0.00,VWS V14.00,2013-03-20 04:51:00,
2013-03-20 00:56:00,32.3,18.8,29.97,SW,228,4.0,19.0,57,0.00,,---,0.00,0.00,VWS V14.00,2013-03-20 04:56:00,
2013-03-20 01:00:00,32.2,18.7,29.98,West,259,7.0,19.0,57,0.00,,---,0.00,0.00,VWS V14.00,2013-03-20 05:00:00,
2013-03-20 01:01:00,32.2,18.7,29.98,West,261,7.0,19.0,57,0.00,,---,0.00,0.00,VWS V14.00,2013-03-20 05:01:00,
2013-03-20 01:06:00,32.5,18.6,29.97,West,269,10.0,20.0,56,0.00,,---,0.00,0.00,VWS V14.00,2013-03-20 05:06:00,
2013-03-20 01:11:00,32.4,18.5,29.97,West,269,3.0,20.0,56,0.00,,---,0.00,0.00,VWS V14.00,2013-03-20 05:11:00,
2013-03-20 01:16:00,32.1,18.6,29.97,West,277,9.0,20.0,57,0.00,,---,0.00,0.00,VWS V14.00,2013-03-20 05:16:00,
2013-03-20 01:21:00,32.0,18.5,29.97,WSW,254,7.0,20.0,57,0.00,,---,0.00,0.00,VWS V14.00,2013-03-20 05:21:00,
2013-03-20 01:26:00,32.0,18.5,29.97,WSW,257,2.0,20.0,57,0.00,,---,0.00,0.00,VWS V14.00,2013-03-20 05:26:00,
2013-03-20 01:30:00,31.8,18.3,29.97,West,267,4.0,20.0,57,0.00,,---,0.00,0.00,VWS V14.00,2013-03-20 05:30:00,
2013-03-20 01:31:00,31.8,18.3,29.97,West,264,5.0,5.0,57,0.00,,---,0.00,0.00,VWS V14.00,2013-03-20 05:31:00,
2013-03-20 01:36:00,31.8,18.3,29.97,WSW,255,5.0,14.0,57,0.00,,---,0.00,0.00,VWS V14.00,2013-03-20 05:36:00,
2013-03-20 01:41:00,31.7,18.2,29.97,West,275,6.0,14.0,57,0.00,,---,0.00,0.00,VWS V14.00,2013-03-20 05:41:00,
2013-03-20 01:46:00,31.6,18.1,29.97,WSW,254,4.0,14.0,57,0.00,,---,0.00,0.00,VWS V14.00,2013-03-20 05:46:00,
2013-03-20 01:52:00,31.7,18.2,29.97,West,260,8.0,14.0,57,0.00,,---,0.00,0.00,VWS V14.00,2013-03-20 05:52:00,
2013-03-20 01:57:00,31.7,18.2,29.97,West,259,10.0,14.0,57,0.00,,---,0.00,0.00,VWS V14.00,2013-03-20 05:57:00,
2013-03-20 02:00:00,31.8,18.3,29.97,West,280,5.0,14.0,57,0.00,,---,0.00,0.00,VWS V14.00,2013-03-20 06:00:00,
2013-03-20 02:02:00,31.8,18.3,29.97,WSW,244,4.0,8.0,57,0.00,,---,0.00,0.00,VWS V14.00,2013-03-20 06:02:00,
2013-03-20 02:07:00,31.7,17.8,29.97,West,267,13.0,16.0,56,0.00,,---,0.00,0.00,VWS V14.00,2013-03-20 06:07:00,
2013-03-20 02:12:00,31.7,17.8,29.97,West,265,7.0,16.0,56,0.00,,---,0.00,0.00,VWS V14.00,2013-03-20 06:12:00,
2013-03-20 02:17:00,31.7,17.8,29.98,West,259,6.0,16.0,56,0.00,,---,0.00,0.00,VWS V14.00,2013-03-20 06:17:00,
2013-03-20 02:22:00,31.5,17.6,29.98,West,260,7.0,16.0,56,0.00,,---,0.00,0.00,VWS V14.00,2013-03-20 06:22:00,
2013-03-20 02:27:00,31.6,17.7,29.98,West,269,8.0,16.0,56,0.00,,---,0.00,0.00,VWS V14.00,2013-03-20 06:27:00,
2013-03-20 02:30:00,31.5,18.0,29.98,WSW,249,4.0,16.0,57,0.00,,---,0.00,0.00,VWS V14.00,2013-03-20 06:30:00,
2013-03-20 02:32:00,31.5,18.0,29.98,WSW,249,8.0,11.0,57,0.00,,---,0.00,0.00,VWS V14.00,2013-03-20 06:32:00,
2013-03-20 02:37:00,31.4,17.9,29.98,West,260,5.0,11.0,57,0.00,,---,0.00,0.00,VWS V14.00,2013-03-20 06:37:00,
2013-03-20 02:42:00,31.3,17.9,29.98,WSW,255,3.0,11.0,57,0.00,,---,0.00,0.00,VWS V14.00,2013-03-20 06:42:00,
2013-03-20 02:47:00,31.1,17.7,29.98,WSW,258,7.0,11.0,57,0.00,,---,0.00,0.00,VWS V14.00,2013-03-20 06:47:00,
2013-03-20 02:52:00,31.1,17.7,29.98,West,272,5.0,11.0,57,0.00,,---,0.00,0.00,VWS V14.00,2013-03-20 06:52:00,
2013-03-20 02:57:00,31.1,17.7,29.98,West,263,4.0,14.0,57,0.00,,---,0.00,0.00,VWS V14.00,2013-03-20 06:57:00,
2013-03-20 03:00:00,30.9,17.9,29.98,WSW,253,5.0,14.0,58,0.00,,---,0.00,0.00,VWS V14.00,2013-03-20 07:00:00,
2013-03-20 03:02:00,30.9,17.9,29.98,WSW,258,4.0,5.0,58,0.00,,---,0.00,0.00,VWS V14.00,2013-03-20 07:02:00,
2013-03-20 03:07:00,31.0,17.6,29.98,West,274,4.0,11.0,57,0.00,,---,0.00,0.00,VWS V14.00,2013-03-20 07:07:00,
2013-03-20 03:12:00,30.9,17.9,29.98,West,261,5.0,11.0,58,0.00,,---,0.00,0.00,VWS V14.00,2013-03-20 07:12:00,
2013-03-20 03:17:00,30.9,17.9,29.97,WSW,251,7.0,12.0,58,0.00,,---,0.00,0.00,VWS V14.00,2013-03-20 07:17:00,
2013-03-20 03:22:00,30.8,17.8,29.97,West,269,3.0,12.0,58,0.00,,---,0.00,0.00,VWS V14.00,2013-03-20 07:22:00,
2013-03-20 03:27:00,30.6,17.6,29.97,WSW,249,6.0,12.0,58,0.00,,---,0.00,0.00,VWS V14.00,2013-03-20 07:27:00,
2013-03-20 03:30:00,30.6,17.6,29.98,West,261,3.0,12.0,58,0.00,,---,0.00,0.00,VWS V14.00,2013-03-20 07:30:00,
2013-03-20 03:32:00,30.5,17.9,29.97,WSW,248,6.0,6.0,59,0.00,,---,0.00,0.00,VWS V14.00,2013-03-20 07:32:00,
2013-03-20 03:37:00,30.4,17.8,29.98,WSW,257,3.0,7.0,59,0.00,,---,0.00,0.00,VWS V14.00,2013-03-20 07:37:00,
2013-03-20 03:42:00,30.3,17.7,29.98,WSW,258,4.0,7.0,59,0.00,,---,0.00,0.00,VWS V14.00,2013-03-20 07:42:00,
2013-03-20 03:47:00,30.3,17.7,29.97,West,268,5.0,10.0,59,0.00,,---,0.00,0.00,VWS V14.00,2013-03-20 07:47:00,
2013-03-20 03:52:00,30.2,17.6,29.97,WSW,256,2.0,10.0,59,0.00,,---,0.00,0.00,VWS V14.00,2013-03-20 07:52:00,
2013-03-20 03:57:00,30.1,17.5,29.97,West,265,3.0,10.0,59,0.00,,---,0.00,0.00,VWS V14.00,2013-03-20 07:57:00,
2013-03-20 04:00:00,30.0,17.4,29.97,West,263,4.0,10.0,59,0.00,,---,0.00,0.00,VWS V14.00,2013-03-20 08:00:00,
2013-03-20 04:02:00,30.0,17.4,29.97,West,262,1.0,6.0,59,0.00,,---,0.00,0.00,VWS V14.00,2013-03-20 08:02:00,
2013-03-20 04:07:00,30.0,17.4,29.97,WSW,254,2.0,8.0,59,0.00,,---,0.00,0.00,VWS V14.00,2013-03-20 08:07:00,
2013-03-20 04:12:00,30.1,17.5,29.97,WSW,249,3.0,8.0,59,0.00,,---,0.00,0.00,VWS V14.00,2013-03-20 08:12:00,
2013-03-20 04:17:00,30.1,17.5,29.97,West,267,4.0,8.0,59,0.00,,---,0.00,0.00,VWS V14.00,2013-03-20 08:17:00,
2013-03-20 04:22:00,29.9,17.3,29.97,West,271,4.0,8.0,59,0.00,,---,0.00,0.00,VWS V14.00,2013-03-20 08:22:00,
2013-03-20 04:27:00,29.8,17.2,29.97,WSW,242,2.0,8.0,59,0.00,,---,0.00,0.00,VWS V14.00,2013-03-20 08:27:00,
2013-03-20 04:30:00,29.8,17.6,29.97,West,259,2.0,8.0,60,0.00,,---,0.00,0.00,VWS V14.00,2013-03-20 08:30:00,
2013-03-20 04:32:00,29.7,17.1,29.97,WSW,252,1.0,4.0,59,0.00,,---,0.00,0.00,VWS V14.00,2013-03-20 08:32:00,
2013-03-20 04:37:00,29.6,17.4,29.97,WSW,246,2.0,4.0,60,0.00,,---,0.00,0.00,VWS V14.00,2013-03-20 08:37:00,
2013-03-20 04:42:00,29.5,17.3,29.97,West,271,2.0,4.0,60,0.00,,---,0.00,0.00,VWS V14.00,2013-03-20 08:42:00,
2013-03-20 04:47:00,29.3,17.5,29.97,WSW,249,1.0,4.0,61,0.00,,---,0.00,0.00,VWS V14.00,2013-03-20 08:47:00,
2013-03-20 04:52:00,29.0,17.2,29.97,West,265,2.0,4.0,61,0.00,,---,0.00,0.00,VWS V14.00,2013-03-20 08:52:00,
2013-03-20 04:57:00,28.8,17.4,29.97,West,265,2.0,4.0,62,0.00,,---,0.00,0.00,VWS V14.00,2013-03-20 08:57:00,
2013-03-20 05:00:00,28.8,17.4,29.97,West,264,1.0,4.0,62,0.00,,---,0.00,0.00,VWS V14.00,2013-03-20 09:00:00,
2013-03-20 05:02:00,28.7,17.3,29.97,West,264,0.0,1.0,62,0.00,,---,0.00,0.00,VWS V14.00,2013-03-20 09:02:00,
2013-03-20 05:08:00,28.7,17.3,29.97,WSW,257,0.0,3.0,62,0.00,,---,0.00,0.00,VWS V14.00,2013-03-20 09:08:00,
2013-03-20 05:13:00,28.6,17.2,29.97,WSW,257,0.0,3.0,62,0.00,,---,0.00,0.00,VWS V14.00,2013-03-20 09:13:00,
2013-03-20 05:18:00,28.5,17.5,29.97,West,262,1.0,3.0,63,0.00,,---,0.00,0.00,VWS V14.00,2013-03-20 09:18:00,
2013-03-20 05:23:00,28.4,17.4,29.97,West,262,1.0,3.0,63,0.00,,---,0.00,0.00,VWS V14.00,2013-03-20 09:23:00,
2013-03-20 05:28:00,28.3,17.3,29.97,West,263,1.0,3.0,63,0.00,,---,0.00,0.00,VWS V14.00,2013-03-20 09:28:00,
2013-03-20 05:30:00,28.2,17.6,29.97,WSW,253,1.0,3.0,64,0.00,,---,0.00,0.00,VWS V14.00,2013-03-20 09:30:00,
2013-03-20 05:33:00,28.2,17.6,29.97,WSW,254,0.0,2.0,64,0.00,,---,0.00,0.00,VWS V14.00,2013-03-20 09:33:00,
2013-03-20 05:38:00,28.3,17.3,29.97,WSW,251,2.0,2.0,63,0.00,,---,0.00,0.00,VWS V14.00,2013-03-20 09:38:00,
2013-03-20 05:43:00,28.4,17.8,29.97,WSW,254,1.0,3.0,64,0.00,,---,0.00,0.00,VWS V14.00,2013-03-20 09:43:00,
2013-03-20 05:48:00,28.4,17.4,29.97,West,261,5.0,5.0,63,0.00,,---,0.00,0.00,VWS V14.00,2013-03-20 09:48:00,
2013-03-20 05:53:00,28.6,17.6,29.98,West,269,2.0,5.0,63,0.00,,---,0.00,0.00,VWS V14.00,2013-03-20 09:53:00,
2013-03-20 05:58:00,28.6,17.6,29.97,West,263,2.0,5.0,63,0.00,,---,0.00,0.00,VWS V14.00,2013-03-20 09:58:00,
2013-03-20 06:00:00,28.7,17.7,29.98,WSW,252,2.0,6.0,63,0.00,,---,0.00,0.00,VWS V14.00,2013-03-20 10:00:00,
2013-03-20 06:03:00,28.7,17.7,29.97,WSW,247,4.0,4.0,63,0.00,,---,0.00,0.00,VWS V14.00,2013-03-20 10:03:00,
2013-03-20 06:08:00,28.9,17.9,29.98,SW,228,1.0,4.0,63,0.00,,---,0.00,0.00,VWS V14.00,2013-03-20 10:08:00,
2013-03-20 06:13:00,28.8,17.8,29.98,West,260,3.0,6.0,63,0.00,,---,0.00,0.00,VWS V14.00,2013-03-20 10:13:00,
2013-03-20 06:18:00,28.9,17.9,29.98,WSW,246,1.0,6.0,63,0.00,,---,0.00,0.00,VWS V14.00,2013-03-20 10:18:00,
2013-03-20 06:23:00,28.9,17.9,29.98,WSW,242,1.0,6.0,63,0.00,,---,0.00,0.00,VWS V14.00,2013-03-20 10:23:00,
2013-03-20 06:28:00,28.9,17.9,29.98,WSW,255,2.0,6.0,63,0.00,,---,0.00,0.00,VWS V14.00,2013-03-20 10:28:00,
2013-03-20 06:30:00,28.9,17.9,29.98,WSW,257,0.0,6.0,63,0.00,,---,0.00,0.00,VWS V14.00,2013-03-20 10:30:00,
2013-03-20 06:33:00,28.9,17.9,29.98,WSW,252,3.0,3.0,63,0.00,,---,0.00,0.00,VWS V14.00,2013-03-20 10:33:00,
2013-03-20 06:38:00,28.8,17.8,29.98,WSW,255,2.0,4.0,63,0.00,,---,0.00,0.00,VWS V14.00,2013-03-20 10:38:00,
2013-03-20 06:43:00,28.7,17.7,29.98,WSW,248,2.0,4.0,63,0.00,,---,0.00,0.00,VWS V14.00,2013-03-20 10:43:00,
2013-03-20 06:48:00,28.6,17.6,29.98,WSW,251,1.0,4.0,63,0.00,,---,0.00,0.00,VWS V14.00,2013-03-20 10:48:00,
2013-03-20 06:53:00,28.6,18.0,29.98,West,267,3.0,6.0,64,0.00,,---,0.00,0.00,VWS V14.00,2013-03-20 10:53:00,
2013-03-20 06:58:00,28.7,17.7,29.98,West,264,2.0,6.0,63,0.00,,---,0.00,0.00,VWS V14.00,2013-03-20 10:58:00,
2013-03-20 07:00:00,28.7,17.7,29.98,WSW,253,2.0,6.0,63,0.00,,---,0.00,0.00,VWS V14.00,2013-03-20 11:00:00,
2013-03-20 07:03:00,28.6,17.6,29.98,West,261,3.0,4.0,63,0.00,,---,0.00,0.00,VWS V14.00,2013-03-20 11:03:00,
2013-03-20 07:08:00,28.6,17.6,29.97,SW,229,3.0,5.0,63,0.00,,---,0.00,0.00,VWS V14.00,2013-03-20 11:08:00,
2013-03-20 07:13:00,28.6,17.6,29.98,WSW,254,2.0,5.0,63,0.00,,---,0.00,0.00,VWS V14.00,2013-03-20 11:13:00,
2013-03-20 07:18:00,28.6,18.0,29.98,West,265,4.0,8.0,64,0.00,,---,0.00,0.00,VWS V14.00,2013-03-20 11:18:00,
2013-03-20 07:23:00,28.7,17.7,29.98,WSW,245,4.0,11.0,63,0.00,,---,0.00,5.00,VWS V14.00,2013-03-20 11:23:00,
2013-03-20 07:28:00,28.8,17.8,29.98,West,281,4.0,11.0,63,0.00,,---,0.00,7.00,VWS V14.00,2013-03-20 11:28:00,
2013-03-20 07:30:00,28.8,17.8,29.98,WSW,249,5.0,11.0,63,0.00,,---,0.00,9.00,VWS V14.00,2013-03-20 11:30:00,
2013-03-20 07:33:00,28.8,18.2,29.98,WSW,252,5.0,9.0,64,0.00,,---,0.00,11.00,VWS V14.00,2013-03-20 11:33:00,
2013-03-20 07:38:00,28.8,17.8,29.98,WSW,258,4.0,9.0,63,0.00,,---,0.00,12.00,VWS V14.00,2013-03-20 11:38:00,
2013-03-20 07:43:00,28.8,17.8,29.98,WSW,254,2.0,9.0,63,0.00,,---,0.00,14.00,VWS V14.00,2013-03-20 11:43:00,
2013-03-20 07:48:00,28.8,17.8,29.98,WSW,238,1.0,9.0,63,0.00,,---,0.00,18.00,VWS V14.00,2013-03-20 11:48:00,
2013-03-20 07:53:00,28.8,18.2,29.99,WSW,254,2.0,9.0,64,0.00,,---,0.00,19.00,VWS V14.00,2013-03-20 11:53:00,
2013-03-20 07:58:00,28.8,18.2,29.98,WSW,250,1.0,9.0,64,0.00,,---,0.00,25.00,VWS V14.00,2013-03-20 11:58:00,
2013-03-20 08:00:00,28.8,18.2,29.98,West,261,2.0,9.0,64,0.00,,---,0.00,26.00,VWS V14.00,2013-03-20 12:00:00,
2013-03-20 08:03:00,28.8,18.2,29.98,WSW,258,0.0,3.0,64,0.00,,---,0.00,30.00,VWS V14.00,2013-03-20 12:03:00,
2013-03-20 08:08:00,28.8,18.5,29.98,WSW,258,0.0,3.0,65,0.00,,---,0.00,39.00,VWS V14.00,2013-03-20 12:08:00,
2013-03-20 08:13:00,28.8,18.5,29.98,WSW,248,0.0,3.0,65,0.00,,---,0.00,40.00,VWS V14.00,2013-03-20 12:13:00,
2013-03-20 08:18:00,29.0,18.7,29.98,WSW,247,0.0,5.0,65,0.00,,---,0.00,51.00,VWS V14.00,2013-03-20 12:18:00,
2013-03-20 08:23:00,29.2,18.9,29.98,WSW,256,0.0,5.0,65,0.00,,---,0.00,84.00,VWS V14.00,2013-03-20 12:23:00,
2013-03-20 08:29:00,29.6,19.3,29.98,West,264,1.0,5.0,65,0.00,,---,0.00,46.00,VWS V14.00,2013-03-20 12:29:00,
2013-03-20 08:30:00,29.7,19.0,29.98,West,259,0.0,5.0,64,0.00,,---,0.00,54.00,VWS V14.00,2013-03-20 12:30:00,
2013-03-20 08:34:00,29.8,18.8,29.98,SW,222,0.0,7.0,63,0.00,,---,0.00,128.00,VWS V14.00,2013-03-20 12:34:00,
2013-03-20 08:39:00,30.2,18.8,29.98,West,259,2.0,8.0,62,0.00,,---,0.00,158.00,VWS V14.00,2013-03-20 12:39:00,
2013-03-20 08:44:00,30.7,19.6,29.98,West,265,3.0,8.0,63,0.00,,---,0.00,221.00,VWS V14.00,2013-03-20 12:44:00,
2013-03-20 08:49:00,31.2,19.3,29.97,SW,234,1.0,8.0,61,0.00,,---,0.00,241.00,VWS V14.00,2013-03-20 12:49:00,
2013-03-20 08:54:00,31.5,19.2,29.98,WSW,246,1.0,8.0,60,0.00,,---,0.00,255.00,VWS V14.00,2013-03-20 12:54:00,
2013-03-20 08:59:00,31.9,19.6,29.98,West,262,2.0,8.0,60,0.00,,---,0.00,271.00,VWS V14.00,2013-03-20 12:59:00,
2013-03-20 09:00:00,32.1,19.8,29.98,SW,229,7.0,8.0,60,0.00,,---,0.00,279.00,VWS V14.00,2013-03-20 13:00:00,
2013-03-20 09:04:00,32.3,18.8,29.97,West,265,6.0,12.0,57,0.00,,---,0.00,290.00,VWS V14.00,2013-03-20 13:04:00,
2013-03-20 09:09:00,32.5,19.0,29.97,WSW,252,3.0,12.0,57,0.00,,---,0.00,306.00,VWS V14.00,2013-03-20 13:09:00,
2013-03-20 09:14:00,32.8,18.4,29.98,SE,139,4.0,12.0,55,0.00,,---,0.00,323.00,VWS V14.00,2013-03-20 13:14:00,
2013-03-20 09:19:00,33.0,18.6,29.98,WSW,257,1.0,12.0,55,0.00,,---,0.00,339.00,VWS V14.00,2013-03-20 13:19:00,
2013-03-20 09:24:00,33.2,18.8,29.98,West,273,7.0,12.0,55,0.00,,---,0.00,362.00,VWS V14.00,2013-03-20 13:24:00,
2013-03-20 09:29:00,33.2,18.4,29.97,West,259,6.0,15.0,54,0.00,,---,0.00,392.00,VWS V14.00,2013-03-20 13:29:00,
2013-03-20 09:30:00,33.3,18.0,29.97,WSW,252,5.0,15.0,53,0.00,,---,0.00,438.00,VWS V14.00,2013-03-20 13:30:00,
2013-03-20 09:34:00,33.6,18.3,29.97,WSW,250,2.0,11.0,53,0.00,,---,0.00,401.00,VWS V14.00,2013-03-20 13:34:00,
2013-03-20 09:39:00,33.8,18.0,29.97,West,270,7.0,12.0,52,0.00,,---,0.00,438.00,VWS V14.00,2013-03-20 13:39:00,
2013-03-20 09:44:00,34.1,17.4,29.97,West,268,5.0,12.0,50,0.00,,---,0.00,445.00,VWS V14.00,2013-03-20 13:44:00,
2013-03-20 09:49:00,34.4,18.2,29.97,WSW,245,8.0,12.0,51,0.00,,---,0.00,445.00,VWS V14.00,2013-03-20 13:49:00,
2013-03-20 09:54:00,34.8,18.1,29.97,South,184,4.0,12.0,50,0.00,,---,0.00,373.00,VWS V14.00,2013-03-20 13:54:00,
2013-03-20 09:59:00,34.5,16.9,29.97,West,260,5.0,12.0,48,0.00,,---,0.00,304.00,VWS V14.00,2013-03-20 13:59:00,
2013-03-20 10:00:00,34.4,16.8,29.97,SW,236,3.0,12.0,48,0.00,,---,0.00,302.00,VWS V14.00,2013-03-20 14:00:00,
2013-03-20 10:04:00,34.2,16.6,29.96,WNW,282,12.0,12.0,48,0.00,,---,0.00,292.00,VWS V14.00,2013-03-20 14:04:00,
2013-03-20 10:09:00,34.1,17.4,29.97,WSW,252,3.0,12.0,50,0.00,,---,0.00,285.00,VWS V14.00,2013-03-20 14:09:00,
2013-03-20 10:14:00,34.6,17.9,29.97,SW,235,2.0,12.0,50,0.00,,---,0.00,308.00,VWS V14.00,2013-03-20 14:14:00,
2013-03-20 10:19:00,35.0,17.8,29.96,WSW,247,4.0,12.0,49,0.00,,---,0.00,378.00,VWS V14.00,2013-03-20 14:19:00,
2013-03-20 10:25:00,35.5,17.8,29.96,SSW,198,3.0,12.0,48,0.00,,---,0.00,432.00,VWS V14.00,2013-03-20 14:25:00,
2013-03-20 10:30:00,35.9,17.6,29.96,West,261,3.0,12.0,47,0.00,,---,0.00,737.00,VWS V14.00,2013-03-20 14:30:00,
2013-03-20 10:35:00,36.3,19.0,29.95,West,261,3.0,10.0,49,0.00,,---,0.00,807.00,VWS V14.00,2013-03-20 14:35:00,
2013-03-20 10:40:00,36.9,18.6,29.95,WSW,246,4.0,13.0,47,0.00,,---,0.00,357.00,VWS V14.00,2013-03-20 14:40:00,
2013-03-20 10:45:00,36.7,18.4,29.95,SE,133,6.0,15.0,47,0.00,,---,0.00,406.00,VWS V14.00,2013-03-20 14:45:00,
2013-03-20 10:50:00,36.8,18.0,29.95,West,265,13.0,15.0,46,0.00,,---,0.00,471.00,VWS V14.00,2013-03-20 14:50:00,
2013-03-20 10:55:00,36.7,17.9,29.94,West,267,8.0,15.0,46,0.00,,---,0.00,388.00,VWS V14.00,2013-03-20 14:55:00,
2013-03-20 11:00:00,36.7,18.4,29.94,SSW,201,5.0,15.0,47,0.00,,---,0.00,510.00,VWS V14.00,2013-03-20 15:00:00,
2013-03-20 11:05:00,36.8,18.0,29.94,SSW,197,3.0,15.0,46,0.00,,---,0.00,519.00,VWS V14.00,2013-03-20 15:05:00,
2013-03-20 11:10:00,37.1,18.8,29.94,SW,223,3.0,15.0,47,0.00,,---,0.00,308.00,VWS V14.00,2013-03-20 15:10:00,
2013-03-20 11:15:00,37.2,18.3,29.94,WSW,258,7.0,15.0,46,0.00,,---,0.00,744.00,VWS V14.00,2013-03-20 15:15:00,
2013-03-20 11:20:00,37.2,17.8,29.94,WSW,252,4.0,17.0,45,0.00,,---,0.00,826.00,VWS V14.00,2013-03-20 15:20:00,
2013-03-20 11:25:00,37.9,18.5,29.94,SW,229,8.0,17.0,45,0.00,,---,0.00,735.00,VWS V14.00,2013-03-20 15:25:00,
2013-03-20 11:30:00,38.2,19.8,29.93,SW,221,4.0,18.0,47,0.00,,---,0.00,807.00,VWS V14.00,2013-03-20 15:30:00,
2013-03-20 11:35:00,39.1,20.6,29.93,West,279,9.0,10.0,47,0.00,,---,0.00,733.00,VWS V14.00,2013-03-20 15:35:00,
2013-03-20 11:40:00,39.6,20.0,29.93,SSW,204,8.0,14.0,45,0.00,,---,0.00,837.00,VWS V14.00,2013-03-20 15:40:00,
2013-03-20 11:45:00,39.3,19.2,29.93,SW,234,8.0,15.0,44,0.00,,---,0.00,831.00,VWS V14.00,2013-03-20 15:45:00,
2013-03-20 11:50:00,38.8,19.3,29.92,West,273,18.0,21.0,45,0.00,,---,0.00,840.00,VWS V14.00,2013-03-20 15:50:00,
2013-03-20 11:55:00,38.6,20.1,29.92,West,263,6.0,22.0,47,0.00,,---,0.00,884.00,VWS V14.00,2013-03-20 15:55:00,
2013-03-20 12:00:00,39.6,21.0,29.91,WSW,254,11.0,22.0,47,0.00,,---,0.00,705.00,VWS V14.00,2013-03-20 16:00:00,
2013-03-20 12:05:00,39.3,20.3,29.91,WSW,257,7.0,19.0,46,0.00,,---,0.00,388.00,VWS V14.00,2013-03-20 16:05:00,
2013-03-20 12:10:00,39.1,19.0,29.91,SSW,193,2.0,19.0,44,0.00,,---,0.00,285.00,VWS V14.00,2013-03-20 16:10:00,
2013-03-20 12:15:00,38.9,19.9,29.90,West,265,1.0,19.0,46,0.00,,---,0.00,341.00,VWS V14.00,2013-03-20 16:15:00,
2013-03-20 12:20:00,39.2,19.7,29.90,WSW,244,8.0,22.0,45,0.00,,---,0.00,432.00,VWS V14.00,2013-03-20 16:20:00,
2013-03-20 12:25:00,39.3,20.3,29.90,West,260,6.0,22.0,46,0.00,,---,0.00,835.00,VWS V14.00,2013-03-20 16:25:00,
2013-03-20 12:30:00,40.1,22.0,29.90,West,261,11.0,22.0,48,0.00,,---,0.00,729.00,VWS V14.00,2013-03-20 16:30:00,
2013-03-20 12:35:00,40.2,21.6,29.89,WSW,249,5.0,9.0,47,0.00,,---,0.00,733.00,VWS V14.00,2013-03-20 16:35:00,
2013-03-20 12:40:00,40.5,21.9,29.89,WSW,244,8.0,12.0,47,0.00,,---,0.00,830.00,VWS V14.00,2013-03-20 16:40:00,
2013-03-20 12:45:00,40.5,20.3,29.89,West,269,19.0,23.0,44,0.00,,---,0.00,668.00,VWS V14.00,2013-03-20 16:45:00,
2013-03-20 12:50:00,40.0,20.4,29.89,West,269,6.0,23.0,45,0.00,,---,0.00,403.00,VWS V14.00,2013-03-20 16:50:00,
2013-03-20 12:55:00,39.9,20.8,29.88,West,264,14.0,23.0,46,0.00,,---,0.00,403.00,VWS V14.00,2013-03-20 16:55:00,
2013-03-20 13:00:00,40.1,21.0,29.88,WSW,238,11.0,23.0,46,0.00,,---,0.00,967.00,VWS V14.00,2013-03-20 17:00:00,
2013-03-20 13:05:00,39.9,20.8,29.88,WSW,255,3.0,22.0,46,0.00,,---,0.00,383.00,VWS V14.00,2013-03-20 17:05:00,
2013-03-20 13:11:00,40.0,20.9,29.87,West,280,4.0,22.0,46,0.00,,---,0.00,350.00,VWS V14.00,2013-03-20 17:11:00,
2013-03-20 13:16:00,40.0,20.9,29.87,West,267,8.0,22.0,46,0.00,,---,0.00,316.00,VWS V14.00,2013-03-20 17:16:00,
2013-03-20 13:21:00,39.6,20.5,29.87,WSW,256,10.0,22.0,46,0.00,,---,0.00,352.00,VWS V14.00,2013-03-20 17:21:00,
2013-03-20 13:26:00,39.6,20.0,29.86,West,273,20.0,22.0,45,0.00,,---,0.00,246.00,VWS V14.00,2013-03-20 17:26:00,
2013-03-20 13:30:00,39.6,21.5,29.86,WNW,287,14.0,23.0,48,0.00,,---,0.00,287.00,VWS V14.00,2013-03-20 17:30:00,
2013-03-20 13:31:00,39.6,21.5,29.86,WNW,287,14.0,23.0,48,0.00,,---,0.00,287.00,VWS V14.00,2013-03-20 17:31:00,
2013-03-20 13:36:00,40.2,21.6,29.86,West,259,14.0,19.0,47,0.00,,---,0.00,494.00,VWS V14.00,2013-03-20 17:36:00,
2013-03-20 13:41:00,41.3,20.5,29.86,West,261,13.0,19.0,43,0.00,,---,0.00,478.00,VWS V14.00,2013-03-20 17:41:00,
2013-03-20 13:46:00,41.1,20.3,29.85,WSW,239,15.0,19.0,43,0.00,,---,0.00,656.00,VWS V14.00,2013-03-20 17:46:00,
2013-03-20 13:51:00,40.8,19.5,29.85,WSW,250,21.0,27.0,42,0.00,,---,0.00,362.00,VWS V14.00,2013-03-20 17:51:00,
2013-03-20 13:56:00,40.6,20.4,29.85,NW,307,17.0,27.0,44,0.00,,---,0.00,315.00,VWS V14.00,2013-03-20 17:56:00,
2013-03-20 14:00:00,40.6,19.9,29.85,WSW,257,19.0,27.0,43,0.00,,---,0.00,279.00,VWS V14.00,2013-03-20 18:00:00,
2013-03-20 14:01:00,40.6,19.9,29.85,West,259,11.0,15.0,43,0.00,,---,0.00,253.00,VWS V14.00,2013-03-20 18:01:00,
2013-03-20 14:07:00,40.3,20.1,29.85,WSW,250,21.0,22.0,44,0.00,,---,0.00,274.00,VWS V14.00,2013-03-20 18:07:00,
2013-03-20 14:12:00,40.3,20.7,29.84,SW,221,8.0,22.0,45,0.00,,---,0.00,615.00,VWS V14.00,2013-03-20 18:12:00,
2013-03-20 14:17:00,40.8,20.6,29.84,West,271,11.0,22.0,44,0.00,,---,0.00,265.00,VWS V14.00,2013-03-20 18:17:00,
2013-03-20 14:22:00,40.8,20.6,29.84,West,273,14.0,22.0,44,0.00,,---,0.00,288.00,VWS V14.00,2013-03-20 18:22:00,
2013-03-20 14:27:00,40.9,21.2,29.84,WSW,251,5.0,22.0,45,0.00,,---,0.00,478.00,VWS V14.00,2013-03-20 18:27:00,
2013-03-20 14:30:00,40.8,21.6,29.84,WSW,252,8.0,22.0,46,0.00,,---,0.00,613.00,VWS V14.00,2013-03-20 18:30:00,
2013-03-20 14:32:00,40.8,21.1,29.84,WSW,256,12.0,12.0,45,0.00,,---,0.00,613.00,VWS V14.00,2013-03-20 18:32:00,
2013-03-20 14:37:00,41.0,20.8,29.83,West,263,15.0,21.0,44,0.00,,---,0.00,571.00,VWS V14.00,2013-03-20 18:37:00,
2013-03-20 14:42:00,40.8,20.6,29.83,WNW,284,19.0,22.0,44,0.00,,---,0.00,279.00,VWS V14.00,2013-03-20 18:42:00,
2013-03-20 14:47:00,40.5,20.3,29.83,WNW,285,13.0,22.0,44,0.00,,---,0.00,278.00,VWS V14.00,2013-03-20 18:47:00,
2013-03-20 14:52:00,40.7,20.0,29.83,West,264,13.0,23.0,43,0.00,,---,0.00,290.00,VWS V14.00,2013-03-20 18:52:00,
2013-03-20 14:57:00,40.9,20.7,29.82,WNW,291,14.0,23.0,44,0.00,,---,0.00,244.00,VWS V14.00,2013-03-20 18:57:00,
2013-03-20 15:00:00,40.7,20.0,29.82,West,273,11.0,23.0,43,0.00,,---,0.00,200.00,VWS V14.00,2013-03-20 19:00:00,
2013-03-20 15:02:00,40.6,20.4,29.82,West,264,15.0,17.0,44,0.00,,---,0.00,186.00,VWS V14.00,2013-03-20 19:02:00,
2013-03-20 15:07:00,40.4,21.3,29.82,WNW,298,12.0,19.0,46,0.00,,---,0.00,216.00,VWS V14.00,2013-03-20 19:07:00,
2013-03-20 15:12:00,40.2,21.1,29.82,WNW,294,8.0,19.0,46,0.00,,---,0.00,265.00,VWS V14.00,2013-03-20 19:12:00,
2013-03-20 15:17:00,40.2,20.6,29.82,WSW,257,6.0,19.0,45,0.00,,---,0.00,165.00,VWS V14.00,2013-03-20 19:17:00,
2013-03-20 15:22:00,40.1,21.0,29.82,West,260,10.0,19.0,46,0.00,,---,0.00,155.00,VWS V14.00,2013-03-20 19:22:00,
2013-03-20 15:27:00,40.1,19.4,29.81,WNW,286,13.0,19.0,43,0.00,,---,0.00,197.00,VWS V14.00,2013-03-20 19:27:00,
2013-03-20 15:30:00,40.3,20.7,29.81,WSW,253,11.0,19.0,45,0.00,,---,0.00,197.00,VWS V14.00,2013-03-20 19:30:00,
2013-03-20 15:32:00,40.3,20.7,29.81,West,272,19.0,21.0,45,0.00,,---,0.00,190.00,VWS V14.00,2013-03-20 19:32:00,
2013-03-20 15:37:00,40.5,20.9,29.81,WNW,291,7.0,21.0,45,0.00,,---,0.00,290.00,VWS V14.00,2013-03-20 19:37:00,
2013-03-20 15:42:00,40.6,21.5,29.81,WNW,283,6.0,21.0,46,0.00,,---,0.00,255.00,VWS V14.00,2013-03-20 19:42:00,
2013-03-20 15:47:00,40.6,20.4,29.80,WNW,284,7.0,21.0,44,0.00,,---,0.00,269.00,VWS V14.00,2013-03-20 19:47:00,
2013-03-20 15:52:00,40.8,21.6,29.80,WNW,282,13.0,21.0,46,0.00,,---,0.00,225.00,VWS V14.00,2013-03-20 19:52:00,
2013-03-20 15:58:00,40.8,20.6,29.80,WNW,293,7.0,21.0,44,0.00,,---,0.00,204.00,VWS V14.00,2013-03-20 19:58:00,
2013-03-20 16:00:00,40.8,20.6,29.80,West,279,9.0,21.0,44,0.00,,---,0.00,244.00,VWS V14.00,2013-03-20 20:00:00,
2013-03-20 16:03:00,40.8,21.1,29.80,West,261,8.0,11.0,45,0.00,,---,0.00,202.00,VWS V14.00,2013-03-20 20:03:00,
2013-03-20 16:08:00,40.7,20.0,29.81,WNW,297,8.0,18.0,43,0.00,,---,0.00,144.00,VWS V14.00,2013-03-20 20:08:00,
2013-03-20 16:13:00,40.5,19.8,29.81,West,279,12.0,20.0,43,0.00,,---,0.00,179.00,VWS V14.00,2013-03-20 20:13:00,
2013-03-20 16:18:00,40.4,20.2,29.80,WNW,289,12.0,20.0,44,0.00,,---,0.00,163.00,VWS V14.00,2013-03-20 20:18:00,
2013-03-20 16:23:00,40.5,20.3,29.80,WNW,283,12.0,23.0,44,0.00,,---,0.00,169.00,VWS V14.00,2013-03-20 20:23:00,
2013-03-20 16:28:00,40.3,20.7,29.81,West,280,12.0,23.0,45,0.00,,---,0.00,176.00,VWS V14.00,2013-03-20 20:28:00,
2013-03-20 16:30:00,40.0,20.4,29.81,West,266,11.0,23.0,45,0.00,,---,0.00,172.00,VWS V14.00,2013-03-20 20:30:00,
2013-03-20 16:33:00,39.9,21.3,29.81,WNW,283,12.0,17.0,47,0.00,,---,0.00,169.00,VWS V14.00,2013-03-20 20:33:00,
2013-03-20 16:38:00,39.8,21.7,29.81,West,277,13.0,17.0,48,0.00,,---,0.00,132.00,VWS V14.00,2013-03-20 20:38:00,
2013-03-20 16:43:00,39.5,21.5,29.81,WNW,292,12.0,19.0,48,0.00,,---,0.00,179.00,VWS V14.00,2013-03-20 20:43:00,
2013-03-20 16:48:00,39.5,21.5,29.81,WNW,290,14.0,19.0,48,0.00,,---,0.00,190.00,VWS V14.00,2013-03-20 20:48:00,
2013-03-20 16:53:00,39.2,22.6,29.81,WNW,302,13.0,19.0,51,0.00,,---,0.00,178.00,VWS V14.00,2013-03-20 20:53:00,
2013-03-20 16:58:00,38.8,22.7,29.81,WNW,297,6.0,19.0,52,0.00,,---,0.00,148.00,VWS V14.00,2013-03-20 20:58:00,
2013-03-20 17:00:00,38.7,22.6,29.81,WNW,296,7.0,19.0,52,0.00,,---,0.00,151.00,VWS V14.00,2013-03-20 21:00:00,
2013-03-20 17:03:00,38.7,22.1,29.81,NW,311,8.0,13.0,51,0.00,,---,0.00,179.00,VWS V14.00,2013-03-20 21:03:00,
2013-03-20 17:08:00,38.8,21.3,29.80,NW,306,13.0,20.0,49,0.00,,---,0.00,190.00,VWS V14.00,2013-03-20 21:08:00,
2013-03-20 17:13:00,38.9,20.9,29.80,NW,309,7.0,20.0,48,0.00,,---,0.00,151.00,VWS V14.00,2013-03-20 21:13:00,
2013-03-20 17:18:00,39.1,22.0,29.80,WNW,289,1.0,20.0,50,0.00,,---,0.00,137.00,VWS V14.00,2013-03-20 21:18:00,
2013-03-20 17:23:00,39.3,21.8,29.80,West,269,4.0,20.0,49,0.00,,---,0.00,121.00,VWS V14.00,2013-03-20 21:23:00,
2013-03-20 17:28:00,39.3,21.3,29.80,West,281,5.0,20.0,48,0.00,,---,0.00,104.00,VWS V14.00,2013-03-20 21:28:00,
2013-03-20 17:30:00,39.3,20.3,29.80,NW,304,11.0,20.0,46,0.00,,---,0.00,102.00,VWS V14.00,2013-03-20 21:30:00,
2013-03-20 17:33:00,39.2,19.7,29.80,NW,304,7.0,15.0,45,0.00,,---,0.00,90.00,VWS V14.00,2013-03-20 21:33:00,
2013-03-20 17:38:00,38.9,19.9,29.80,WNW,288,7.0,15.0,46,0.00,,---,0.00,93.00,VWS V14.00,2013-03-20 21:38:00,
2013-03-20 17:43:00,38.8,19.8,29.81,West,277,11.0,15.0,46,0.00,,---,0.00,114.00,VWS V14.00,2013-03-20 21:43:00,
2013-03-20 17:48:00,38.8,20.3,29.81,NW,306,16.0,22.0,47,0.00,,---,0.00,153.00,VWS V14.00,2013-03-20 21:48:00,
2013-03-20 17:53:00,38.1,21.1,29.81,WNW,283,7.0,22.0,50,0.00,,---,0.00,167.00,VWS V14.00,2013-03-20 21:53:00,
2013-03-20 17:58:00,38.0,20.5,29.80,WNW,286,19.0,22.0,49,0.00,,---,0.00,209.00,VWS V14.00,2013-03-20 21:58:00,
2013-03-20 18:00:00,38.2,21.7,29.81,West,273,15.0,22.0,51,0.00,,---,0.00,158.00,VWS V14.00,2013-03-20 22:00:00,
2013-03-20 18:03:00,38.0,22.4,29.81,West,277,9.0,19.0,53,0.00,,---,0.00,192.00,VWS V14.00,2013-03-20 22:03:00,
2013-03-20 18:08:00,37.6,22.0,29.81,WNW,293,7.0,19.0,53,0.00,,---,0.00,104.00,VWS V14.00,2013-03-20 22:08:00,
2013-03-20 18:13:00,37.6,20.2,29.81,WNW,283,15.0,19.0,49,0.00,,---,0.00,216.00,VWS V14.00,2013-03-20 22:13:00,
2013-03-20 18:18:00,37.8,19.9,29.81,WNW,294,6.0,19.0,48,0.00,,---,0.00,102.00,VWS V14.00,2013-03-20 22:18:00,
2013-03-20 18:23:00,37.6,19.2,29.82,West,278,14.0,21.0,47,0.00,,---,0.00,95.00,VWS V14.00,2013-03-20 22:23:00,
2013-03-20 18:28:00,37.3,19.4,29.82,WNW,291,11.0,21.0,48,0.00,,---,0.00,91.00,VWS V14.00,2013-03-20 22:28:00,
2013-03-20 18:30:00,37.1,19.2,29.82,WNW,301,7.0,21.0,48,0.00,,---,0.00,74.00,VWS V14.00,2013-03-20 22:30:00,
2013-03-20 18:33:00,37.0,19.1,29.82,West,281,14.0,16.0,48,0.00,,---,0.00,84.00,VWS V14.00,2013-03-20 22:33:00,
2013-03-20 18:38:00,36.8,19.0,29.82,WNW,288,14.0,16.0,48,0.00,,---,0.00,113.00,VWS V14.00,2013-03-20 22:38:00,
2013-03-20 18:43:00,36.8,18.5,29.82,West,274,8.0,20.0,47,0.00,,---,0.00,88.00,VWS V14.00,2013-03-20 22:43:00,
2013-03-20 18:48:00,36.8,18.5,29.81,West,267,8.0,20.0,47,0.00,,---,0.00,51.00,VWS V14.00,2013-03-20 22:48:00,
2013-03-20 18:54:00,36.6,18.3,29.82,West,265,7.0,20.0,47,0.00,,---,0.00,58.00,VWS V14.00,2013-03-20 22:54:00,
2013-03-20 18:58:00,36.6,17.8,29.82,West,279,11.0,20.0,46,0.00,,---,0.00,51.00,VWS V14.00,2013-03-20 22:58:00,
2013-03-20 19:00:00,36.6,17.3,29.82,West,268,20.0,20.0,45,0.00,,---,0.00,47.00,VWS V14.00,2013-03-20 23:00:00,
2013-03-20 19:04:00,36.6,17.3,29.82,West,280,7.0,21.0,45,0.00,,---,0.00,44.00,VWS V14.00,2013-03-20 23:04:00,
2013-03-20 19:09:00,36.6,17.3,29.82,WNW,302,17.0,21.0,45,0.00,,---,0.00,32.00,VWS V14.00,2013-03-20 23:09:00,
2013-03-20 19:14:00,36.3,17.5,29.82,WNW,294,6.0,21.0,46,0.00,,---,0.00,26.00,VWS V14.00,2013-03-20 23:14:00,
2013-03-20 19:19:00,35.9,17.1,29.82,WNW,295,5.0,21.0,46,0.00,,---,0.00,18.00,VWS V14.00,2013-03-20 23:19:00,
2013-03-20 19:24:00,35.5,17.3,29.82,WNW,296,9.0,21.0,47,0.00,,---,0.00,9.00,VWS V14.00,2013-03-20 23:24:00,
2013-03-20 19:29:00,35.1,17.4,29.83,WNW,296,5.0,21.0,48,0.00,,---,0.00,7.00,VWS V14.00,2013-03-20 23:29:00,
2013-03-20 19:30:00,34.9,18.2,29.83,NW,306,5.0,21.0,50,0.00,,---,0.00,5.00,VWS V14.00,2013-03-20 23:30:00,
2013-03-20 19:34:00,34.7,18.4,29.83,NW,321,7.0,12.0,51,0.00,,---,0.00,0.00,VWS V14.00,2013-03-20 23:34:00,
2013-03-20 19:39:00,34.5,18.7,29.84,WNW,292,7.0,13.0,52,0.00,,---,0.00,0.00,VWS V14.00,2013-03-20 23:39:00,
2013-03-20 19:44:00,34.2,18.4,29.84,WNW,303,7.0,14.0,52,0.00,,---,0.00,0.00,VWS V14.00,2013-03-20 23:44:00,
2013-03-20 19:49:00,34.0,18.7,29.84,NW,317,4.0,18.0,53,0.00,,---,0.00,0.00,VWS V14.00,2013-03-20 23:49:00,
2013-03-20 19:54:00,33.8,18.9,29.84,WNW,294,5.0,18.0,54,0.00,,---,0.00,0.00,VWS V14.00,2013-03-20 23:54:00,
2013-03-20 19:59:00,33.7,18.4,29.85,WNW,296,9.0,18.0,53,0.00,,---,0.00,0.00,VWS V14.00,2013-03-20 23:59:00,
2013-03-20 20:00:00,33.6,18.3,29.85,NW,315,5.0,18.0,53,0.00,,---,0.00,0.00,VWS V14.00,2013-03-21 00:00:00,
2013-03-20 20:04:00,33.5,19.1,29.85,WNW,300,6.0,12.0,55,0.00,,---,0.00,0.00,VWS V14.00,2013-03-21 00:04:00,
2013-03-20 20:09:00,33.3,19.3,29.85,NW,305,7.0,14.0,56,0.00,,---,0.00,0.00,VWS V14.00,2013-03-21 00:09:00,
2013-03-20 20:14:00,33.0,19.0,29.85,WNW,287,4.0,14.0,56,0.00,,---,0.00,0.00,VWS V14.00,2013-03-21 00:14:00,
2013-03-20 20:19:00,32.7,19.6,29.86,NNW,340,5.0,14.0,58,0.00,,---,0.00,0.00,VWS V14.00,2013-03-21 00:19:00,
2013-03-20 20:24:00,32.4,19.7,29.86,NW,320,6.0,14.0,59,0.00,,---,0.00,0.00,VWS V14.00,2013-03-21 00:24:00,
2013-03-20 20:29:00,32.3,19.6,29.86,WNW,300,5.0,14.0,59,0.00,,---,0.00,0.00,VWS V14.00,2013-03-21 00:29:00,
2013-03-20 20:30:00,32.3,19.6,29.86,NNW,329,1.0,14.0,59,0.00,,---,0.00,0.00,VWS V14.00,2013-03-21 00:30:00,
2013-03-20 20:34:00,32.2,19.5,29.87,NW,310,4.0,8.0,59,0.00,,---,0.00,0.00,VWS V14.00,2013-03-21 00:34:00,
2013-03-20 20:39:00,32.0,19.7,29.87,NW,311,2.0,8.0,60,0.00,,---,0.00,0.00,VWS V14.00,2013-03-21 00:39:00,
2013-03-20 20:44:00,31.9,20.0,29.87,North,5,6.0,8.0,61,0.00,,---,0.00,0.00,VWS V14.00,2013-03-21 00:44:00,
2013-03-20 20:49:00,31.8,19.9,29.88,NW,326,4.0,16.0,61,0.00,,---,0.00,0.00,VWS V14.00,2013-03-21 00:49:00,
2013-03-20 20:54:00,31.7,19.4,29.87,WNW,302,4.0,16.0,60,0.00,,---,0.00,0.00,VWS V14.00,2013-03-21 00:54:00,
2013-03-20 20:59:00,31.5,19.2,29.88,NW,317,7.0,16.0,60,0.00,,---,0.00,0.00,VWS V14.00,2013-03-21 00:59:00,
2013-03-20 21:00:00,31.5,19.2,29.88,WNW,303,7.0,16.0,60,0.00,,---,0.00,0.00,VWS V14.00,2013-03-21 01:00:00,
2013-03-20 21:04:00,31.4,18.7,29.88,WNW,284,5.0,9.0,59,0.00,,---,0.00,0.00,VWS V14.00,2013-03-21 01:04:00,
2013-03-20 21:09:00,31.1,18.5,29.88,NNW,335,7.0,13.0,59,0.00,,---,0.00,0.00,VWS V14.00,2013-03-21 01:09:00,
2013-03-20 21:14:00,31.0,18.4,29.88,WNW,299,5.0,13.0,59,0.00,,---,0.00,0.00,VWS V14.00,2013-03-21 01:14:00,
2013-03-20 21:19:00,30.7,18.5,29.88,WNW,294,5.0,13.0,60,0.00,,---,0.00,0.00,VWS V14.00,2013-03-21 01:19:00,
2013-03-20 21:24:00,30.4,18.2,29.89,NW,321,4.0,13.0,60,0.00,,---,0.00,0.00,VWS V14.00,2013-03-21 01:24:00,
2013-03-20 21:29:00,30.3,18.5,29.89,NNW,338,2.0,13.0,61,0.00,,---,0.00,0.00,VWS V14.00,2013-03-21 01:29:00,
2013-03-20 21:30:00,30.3,18.1,29.89,NW,312,5.0,13.0,60,0.00,,---,0.00,0.00,VWS V14.00,2013-03-21 01:30:00,
2013-03-20 21:34:00,30.2,18.4,29.89,NW,304,0.0,6.0,61,0.00,,---,0.00,0.00,VWS V14.00,2013-03-21 01:34:00,
2013-03-20 21:39:00,30.0,18.2,29.89,WNW,299,7.0,7.0,61,0.00,,---,0.00,0.00,VWS V14.00,2013-03-21 01:39:00,
2013-03-20 21:44:00,30.0,17.8,29.89,WNW,297,4.0,7.0,60,0.00,,---,0.00,0.00,VWS V14.00,2013-03-21 01:44:00,
2013-03-20 21:49:00,29.8,18.0,29.89,WNW,298,1.0,7.0,61,0.00,,---,0.00,0.00,VWS V14.00,2013-03-21 01:49:00,
2013-03-20 21:54:00,29.6,17.4,29.89,WNW,303,4.0,8.0,60,0.00,,---,0.00,0.00,VWS V14.00,2013-03-21 01:54:00,
2013-03-20 22:00:00,29.5,17.7,29.90,NW,304,2.0,8.0,61,0.00,,---,0.00,0.00,VWS V14.00,2013-03-21 02:00:00,
2013-03-20 22:05:00,29.4,17.6,29.90,NW,304,0.0,4.0,61,0.00,,---,0.00,0.00,VWS V14.00,2013-03-21 02:05:00,
2013-03-20 22:10:00,29.3,17.5,29.90,NW,305,5.0,6.0,61,0.00,,---,0.00,0.00,VWS V14.00,2013-03-21 02:10:00,
2013-03-20 22:15:00,29.2,17.4,29.90,WNW,296,1.0,6.0,61,0.00,,---,0.00,0.00,VWS V14.00,2013-03-21 02:15:00,
2013-03-20 22:20:00,29.1,17.3,29.89,WNW,299,2.0,6.0,61,0.00,,---,0.00,0.00,VWS V14.00,2013-03-21 02:20:00,
2013-03-20 22:25:00,29.0,17.2,29.90,NW,312,4.0,6.0,61,0.00,,---,0.00,0.00,VWS V14.00,2013-03-21 02:25:00,
2013-03-20 22:30:00,28.9,17.2,29.90,WNW,301,5.0,6.0,61,0.00,,---,0.00,0.00,VWS V14.00,2013-03-21 02:30:00,
2013-03-20 22:35:00,29.0,17.2,29.90,NNW,327,0.0,7.0,61,0.00,,---,0.00,0.00,VWS V14.00,2013-03-21 02:35:00,
2013-03-20 22:40:00,29.0,17.2,29.90,WNW,296,4.0,7.0,61,0.00,,---,0.00,0.00,VWS V14.00,2013-03-21 02:40:00,
2013-03-20 22:45:00,29.0,17.2,29.90,WNW,286,2.0,8.0,61,0.00,,---,0.00,0.00,VWS V14.00,2013-03-21 02:45:00,
2013-03-20 22:50:00,29.0,16.5,29.90,WNW,289,4.0,11.0,59,0.00,,---,0.00,0.00,VWS V14.00,2013-03-21 02:50:00,
2013-03-20 22:55:00,28.9,16.4,29.90,West,280,7.0,12.0,59,0.00,,---,0.00,0.00,VWS V14.00,2013-03-21 02:55:00,
2013-03-20 23:00:00,28.8,16.3,29.90,West,279,7.0,12.0,59,0.00,,---,0.00,0.00,VWS V14.00,2013-03-21 03:00:00,
2013-03-20 23:05:00,28.9,16.4,29.90,WNW,288,4.0,12.0,59,0.00,,---,0.00,0.00,VWS V14.00,2013-03-21 03:05:00,
2013-03-20 23:10:00,28.8,16.3,29.90,WNW,300,7.0,12.0,59,0.00,,---,0.00,0.00,VWS V14.00,2013-03-21 03:10:00,
2013-03-20 23:15:00,28.7,16.6,29.90,WNW,301,5.0,13.0,60,0.00,,---,0.00,0.00,VWS V14.00,2013-03-21 03:15:00,
2013-03-20 23:20:00,28.5,17.1,29.90,WNW,284,6.0,14.0,62,0.00,,---,0.00,0.00,VWS V14.00,2013-03-21 03:20:00,
2013-03-20 23:25:00,28.3,17.3,29.90,WNW,294,5.0,14.0,63,0.00,,---,0.00,0.00,VWS V14.00,2013-03-21 03:25:00,
2013-03-20 23:30:00,28.0,17.4,29.90,WNW,294,4.0,14.0,64,0.00,,---,0.00,0.00,VWS V14.00,2013-03-21 03:30:00,
2013-03-20 23:35:00,27.7,17.5,29.90,WNW,296,4.0,7.0,65,0.00,,---,0.00,0.00,VWS V14.00,2013-03-21 03:35:00,
2013-03-20 23:40:00,27.4,17.5,29.90,West,276,5.0,7.0,66,0.00,,---,0.00,0.00,VWS V14.00,2013-03-21 03:40:00,
2013-03-20 23:45:00,27.5,17.6,29.90,NW,309,4.0,7.0,66,0.00,,---,0.00,0.00,VWS V14.00,2013-03-21 03:45:00,
2013-03-20 23:50:00,27.5,17.6,29.90,NW,307,2.0,7.0,66,0.00,,---,0.00,0.00,VWS V14.00,2013-03-21 03:50:00,
2013-03-20 23:55:00,27.4,17.5,29.90,NW,304,0.0,7.0,66,0.00,,---,0.00,0.00,VWS V14.00,2013-03-21 03:55:00,